CW1855 Weather Reports


Display with metric or nautical units.
time (UTC)temp
F
wind
direction
speed
MPH
gust
MPH
rain 1hr
in
rain 24hr
in
rain mn
in
humidity
%
barometer
mb
20171214222207 47 245 0.0 0.0 0.00 0.00 0.00 27 1023.4
20171214221707 48 245 0.0 4.0 0.00 0.00 0.00 27 1023.4
20171214220706 50 245 2.0 4.0 0.00 0.00 0.00 24 1023.4
20171214220208 51 245 0.0 4.0 0.00 0.00 0.00 24 1023.4
20171214215706 49 310 0.0 0.0 0.00 0.00 0.00 27 1023.4
20171214215207 50 311 0.0 0.0 0.00 0.00 0.00 28 1023.4
20171214214707 50 311 0.0 3.0 0.00 0.00 0.00 29 1023.4
20171214213706 45 311 0.0 4.0 0.00 0.00 0.00 31 1023.4
20171214211206 47 287 3.0 4.0 0.00 0.00 0.00 28 1023.4
20171214210707 48 219 3.0 3.0 0.00 0.00 0.00 28 1023.4
20171214210208 45 270 0.0 3.0 0.00 0.00 0.00 32 1023.4
20171214205707 44 270 0.0 4.0 0.00 0.00 0.00 32 1023.4
20171214205207 44 270 2.0 4.0 0.00 0.00 0.00 32 1023.4
20171214204706 45 270 0.0 4.0 0.00 0.00 0.00 32 1023.4
20171214204207 45 264 2.0 4.0 0.00 0.00 0.00 31 1023.4
20171214203206 45 237 3.0 4.0 0.00 0.00 0.00 30 1024.4
20171214202707 45 237 2.0 5.0 0.00 0.00 0.00 31 1024.4
20171214201207 47 264 4.0 5.0 0.00 0.00 0.00 28 1024.4
20171214200707 50 288 3.0 5.0 0.00 0.00 0.00 27 1024.4
20171214200303 51 284 2.0 5.0 0.00 0.00 0.00 26 1024.4
20171214195707 54 310 3.0 4.0 0.00 0.00 0.00 23 1024.4
20171214195206 54 273 3.0 4.0 0.00 0.00 0.00 23 1024.4
20171214194707 56 224 0.0 4.0 0.00 0.00 0.00 22 1023.4
20171214193706 53 245 3.0 4.0 0.00 0.00 0.00 26 1023.4
20171214193208 52 247 0.0 3.0 0.00 0.00 0.00 26 1024.4
20171214191709 46 223 0.0 0.0 0.00 0.00 0.00 31 1024.4
20171214185707 50 236 3.0 4.0 0.00 0.00 0.00 27 1024.4
20171214185208 52 245 3.0 4.0 0.00 0.00 0.00 27 1024.4
20171214183706 57 140 0.0 0.0 0.00 0.00 0.00 40 1024.4
20171214182707 51 141 0.0 3.0 0.00 0.00 0.00 43 1024.4
20171214181708 47 141 0.0 4.0 0.00 0.00 0.00 50 1024.4
20171214181206 46 141 0.0 3.0 0.00 0.00 0.00 52 1024.4
20171214175208 40 136 0.0 4.0 0.00 0.00 0.00 52 1025.4
20171214174206 36 133 0.0 0.0 0.00 0.00 0.00 55 1025.4
20171214173207 39 127 0.0 0.0 0.00 0.00 0.00 58 1025.4
20171214172707 37 127 0.0 0.0 0.00 0.00 0.00 67 1025.4
20171214171206 34 127 0.0 0.0 0.00 0.00 0.00 67 1024.4
20171214161207 24 127 0.0 0.0 0.00 0.00 0.00 79 1024.4
20171214160707 24 127 0.0 0.0 0.00 0.00 0.00 77 1024.4
20171214160207 24 127 0.0 0.0 0.00 0.00 0.00 79 1024.4
20171214155207 24 127 0.0 0.0 0.00 0.00 0.00 79 1024.4
20171214154708 24 127 0.0 0.0 0.00 0.00 0.00 79 1024.4
20171214154207 23 127 0.0 0.0 0.00 0.00 0.00 81 1024.4
20171214153707 23 127 0.0 0.0 0.00 0.00 0.00 82 1024.4
20171214152410 23 127 0.0 0.0 0.00 0.00 0.00 78 1023.4
20171214151707 23 127 0.0 0.0 0.00 0.00 0.00 79 1024.4
20171214150208 23 127 0.0 0.0 0.00 0.00 0.00 81 1023.4
20171214145207 23 127 0.0 0.0 0.00 0.00 0.00 77 1023.4
20171214144206 23 127 0.0 0.0 0.00 0.00 0.00 76 1024.4
20171214142707 23 127 0.0 0.0 0.00 0.00 0.00 79 1023.4
20171214141207 24 127 0.0 0.0 0.00 0.00 0.00 82 1023.4
20171214134706 24 127 0.0 0.0 0.00 0.00 0.00 77 1024.4
20171214133208 24 127 0.0 0.0 0.00 0.00 0.00 77 1024.4
20171214132706 24 127 0.0 0.0 0.00 0.00 0.00 79 1024.4
20171214132207 24 127 0.0 0.0 0.00 0.00 0.00 80 1024.4
20171214131207 24 127 0.0 0.0 0.00 0.00 0.00 81 1024.4
20171214130207 24 127 0.0 0.0 0.00 0.00 0.00 79 1024.4
20171214125707 25 127 0.0 0.0 0.00 0.00 0.00 78 1024.4
20171214125207 24 127 0.0 0.0 0.00 0.00 0.00 72 1024.4
20171214124707 24 127 0.0 0.0 0.00 0.00 0.00 74 1024.4
20171214124207 24 127 0.0 0.0 0.00 0.00 0.00 76 1024.4
20171214122706 24 127 0.0 0.0 0.00 0.00 0.00 81 1024.4
20171214122206 24 127 0.0 0.0 0.00 0.00 0.00 79 1024.4
20171214121706 24 127 0.0 0.0 0.00 0.00 0.00 76 1024.4
20171214120206 24 127 0.0 0.0 0.00 0.00 0.00 74 1023.4
20171214115706 24 127 0.0 0.0 0.00 0.00 0.00 69 1023.4
20171214115207 24 127 0.0 0.0 0.00 0.00 0.00 69 1023.4
20171214114706 24 127 0.0 0.0 0.00 0.00 0.00 70 1024.4
20171214113208 24 127 0.0 0.0 0.00 0.00 0.00 74 1024.4
20171214112206 24 127 0.0 0.0 0.00 0.00 0.00 75 1024.4
20171214111708 24 127 0.0 0.0 0.00 0.00 0.00 76 1024.4
20171214111212 24 127 0.0 0.0 0.00 0.00 0.00 72 1024.4
20171214110707 24 126 0.0 0.0 0.00 0.00 0.00 69 1024.4
20171214110208 24 127 0.0 0.0 0.00 0.00 0.00 72 1024.4
20171214104707 25 127 0.0 0.0 0.00 0.00 0.00 80 1024.4
20171214103706 25 127 0.0 0.0 0.00 0.00 0.00 69 1024.4
20171214103207 25 127 0.0 0.0 0.00 0.00 0.00 67 1024.4
20171214102707 24 127 0.0 0.0 0.00 0.00 0.00 67 1024.4
20171214100707 25 127 0.0 0.0 0.00 0.00 0.00 64 1024.4
20171214094706 25 127 0.0 0.0 0.00 0.00 0.00 70 1024.4
20171214093208 25 127 0.0 0.0 0.00 0.00 0.00 64 1024.4
20171214091707 26 127 0.0 0.0 0.00 0.00 0.00 68 1024.4
20171214090207 25 127 0.0 0.0 0.00 0.00 0.00 67 1024.4
20171214085706 25 127 0.0 0.0 0.00 0.00 0.00 69 1024.4
20171214084707 26 127 0.0 0.0 0.00 0.00 0.00 64 1024.4
20171214084207 26 127 0.0 0.0 0.00 0.00 0.00 68 1024.4
20171214082705 26 127 0.0 0.0 0.00 0.00 0.00 65 1024.4
20171214081708 26 127 0.0 0.0 0.00 0.00 0.00 66 1024.4
20171214081207 26 127 0.0 0.0 0.00 0.00 0.00 69 1024.4
20171214080708 26 127 0.0 0.0 0.00 0.00 0.00 64 1024.4
20171214074708 26 127 0.0 0.0 0.00 0.00 0.00 67 1024.4
20171214074302 26 127 0.0 0.0 0.00 0.00 0.00 76 1024.4
20171214073205 25 127 0.0 0.0 0.00 0.00 0.00 64 1024.4
20171214072207 26 127 0.0 0.0 0.00 0.00 0.00 60 1024.4
20171214071207 25 127 0.0 0.0 0.00 0.00 0.00 61 1024.4
20171214070706 26 127 0.0 0.0 0.00 0.00 0.00 61 1024.4
20171214070208 26 127 0.0 0.0 0.00 0.00 0.00 61 1024.4
20171214065707 26 127 0.0 0.0 0.00 0.00 0.00 61 1024.4
20171214064707 27 127 0.0 0.0 0.00 0.00 0.00 71 1024.4
20171214063207 27 127 0.0 3.0 0.00 0.00 0.00 76 1024.4
20171214062706 27 127 0.0 4.0 0.00 0.00 0.00 74 1024.4
20171214060208 27 119 2.0 3.0 0.00 0.00 0.00 58 1024.4
20171214055706 26 129 0.0 3.0 0.00 0.00 0.00 57 1024.4
20171214055206 26 129 0.0 0.0 0.00 0.00 0.00 57 1024.4
20171214054207 27 129 0.0 0.0 0.00 0.00 0.00 61 1025.4
20171214053207 27 129 0.0 0.0 0.00 0.00 0.00 56 1024.4
20171214052706 27 129 0.0 0.0 0.00 0.00 0.00 58 1024.4
20171214051706 27 129 0.0 0.0 0.00 0.00 0.00 59 1024.4
20171214050711 27 129 0.0 0.0 0.00 0.00 0.00 57 1024.4
20171214050207 27 129 0.0 0.0 0.00 0.00 0.00 57 1024.4
20171214045206 27 129 0.0 0.0 0.00 0.00 0.00 57 1024.4
20171214044706 27 129 0.0 0.0 0.00 0.00 0.00 55 1024.4
20171214044207 27 129 0.0 0.0 0.00 0.00 0.00 55 1024.4
20171214042705 28 129 0.0 4.0 0.00 0.00 0.00 56 1024.4
20171214042209 28 129 0.0 4.0 0.00 0.00 0.00 57 1024.4
20171214041206 28 54 0.0 0.0 0.00 0.00 0.00 55 1023.4
20171214040207 27 22 0.0 0.0 0.00 0.00 0.00 55 1024.4
20171214035206 28 22 0.0 0.0 0.00 0.00 0.00 57 1024.4
20171214033707 28 22 0.0 0.0 0.00 0.00 0.00 54 1024.4
20171214032207 29 22 0.0 0.0 0.00 0.00 0.00 53 1024.4
20171214031324 30 22 0.0 0.0 0.00 0.00 0.00 53 1024.4
20171214030207 30 22 0.0 0.0 0.00 0.00 0.00 52 1024.4
20171214025707 30 22 0.0 0.0 0.00 0.00 0.00 53 1024.4
20171214025205 30 22 0.0 0.0 0.00 0.00 0.00 51 1024.4
20171214024707 30 22 0.0 0.0 0.00 0.00 0.00 50 1024.4
20171214024208 30 22 0.0 0.0 0.00 0.00 0.00 48 1024.4
20171214023706 31 22 0.0 0.0 0.00 0.00 0.00 45 1024.4
20171214023206 31 22 0.0 0.0 0.00 0.00 0.00 46 1024.4
20171214022708 32 22 0.0 0.0 0.00 0.00 0.00 49 1024.4
20171214022217 32 22 0.0 0.0 0.00 0.00 0.00 45 1024.4
20171214021706 32 22 0.0 0.0 0.00 0.00 0.00 41 1024.4
20171214021207 32 22 0.0 0.0 0.00 0.00 0.00 41 1024.4
20171214020208 32 22 0.0 0.0 0.00 0.00 0.00 41 1024.4
20171214013207 34 22 0.0 0.0 0.00 0.00 0.00 35 1024.4
20171214012707 35 22 0.0 0.0 0.00 0.00 0.00 35 1024.4
20171214012206 35 22 0.0 3.0 0.00 0.00 0.00 32 1024.4
20171214010208 40 18 3.0 6.0 0.00 0.00 0.00 31 1024.4
20171214005207 40 20 3.0 5.0 0.00 0.00 0.00 30 1024.4
20171214004707 41 23 4.0 5.0 0.00 0.00 0.00 30 1024.4
20171214003706 41 32 4.0 6.0 0.00 0.00 0.00 29 1024.4
20171214003207 42 30 4.0 6.0 0.00 0.00 0.00 29 1024.4
20171214002706 42 32 4.0 6.0 0.00 0.00 0.00 29 1024.4
20171214001208 42 295 0.0 0.0 0.00 0.00 0.00 29 1024.4
20171213234707 50 251 0.0 0.0 0.00 0.00 0.00 19 1024.4
20171213233707 52 251 0.0 0.0 0.00 0.00 0.00 19 1024.4
20171213231708 53 251 0.0 3.0 0.00 0.00 0.00 18 1024.4
20171213231207 54 251 0.0 4.0 0.00 0.00 0.00 18 1024.4
20171213230708 54 251 0.0 4.0 0.00 0.00 0.00 18 1024.4
20171213230232 55 251 2.0 4.0 0.00 0.00 0.00 18 1024.4
20171213225707 56 255 3.0 4.0 0.00 0.00 0.00 17 1024.4
20171213225207 57 258 2.0 4.0 0.00 0.00 0.00 17 1024.4
20171213224707 57 265 0.0 4.0 0.00 0.00 0.00 17 1024.4
20171213224207 57 265 0.0 4.0 0.00 0.00 0.00 17 1024.4